Date,TemperatureHighF,TemperatureAvgF,TemperatureLowF,DewpointHighF,DewpointAvgF,DewpointLowF,HumidityHigh,HumidityAvg,HumidityLow,PressureMaxIn,PressureMinIn,WindSpeedMaxMPH,WindSpeedAvgMPH,GustSpeedMaxMPH,PrecipitationSumIn
2012-1-1,46.0,36.0,29.2,38.2,27.4,18.5,94,72,53,30.32,29.58,33,25,39,0.09
2012-1-2,29.1,22.7,15.9,19.7,13.8,10.6,84,69,56,30.53,30.29,32,20,35,0.00
2012-1-3,33.0,22.7,9.3,16.2,12.1,6.2,90,66,41,30.55,30.06,13,7,17,0.00
2012-1-4,44.4,33.5,24.4,31.6,24.6,16.2,88,70,51,30.18,29.99,19,9,23,0.00
2012-1-5,59.2,39.5,26.0,36.5,30.2,22.9,90,71,41,30.11,29.79,15,8,17,0.00
2012-1-6,57.1,43.4,33.6,39.4,34.0,29.1,88,70,50,29.93,29.71,13,8,15,0.00
2012-1-7,44.1,35.0,27.1,32.1,28.7,23.2,92,78,60,30.29,29.93,13,6,15,0.00
2012-1-8,40.5,31.7,22.1,33.0,27.8,20.2,95,86,72,30.40,30.27,5,1,7,0.00
2012-1-9,48.6,33.3,20.8,34.1,27.1,19.3,96,80,48,30.32,30.08,14,6,18,0.00
2012-1-10,56.3,38.4,25.3,35.8,28.5,22.8,93,70,39,30.11,29.78,13,4,18,0.00
2012-1-11,55.0,37.0,25.7,35.1,28.6,22.2,92,74,43,29.79,29.55,26,6,32,0.00
2012-1-12,28.1,16.1,12.7,24.0,13.5,10.1,92,89,81,29.86,29.68,28,21,31,0.00
2012-1-13,18.4,14.2,6.4,15.2,11.2,3.6,90,88,86,30.17,29.86,20,12,26,0.00
2012-1-14,26.5,17.4,8.5,23.0,14.8,5.9,100,89,83,30.32,30.09,8,3,10,0.02
2012-1-15,38.2,30.7,20.0,30.7,25.8,17.9,93,82,71,30.34,29.99,23,10,29,0.00
2012-1-16,56.7,42.2,31.2,49.1,37.9,27.3,95,85,73,29.99,29.64,14,5,19,0.00
2012-1-17,36.7,26.5,14.2,35.7,23.3,8.6,96,87,78,30.39,29.60,29,17,33,0.13
2012-1-18,28.7,19.7,8.2,19.6,13.1,5.2,92,76,59,30.40,29.92,15,7,19,0.00
2012-1-19,29.7,16.2,6.5,23.5,9.4,1.0,89,74,60,30.25,29.89,16,6,19,0.00
2012-1-20,22.7,15.2,6.8,16.5,8.3,0.0,92,74,60,30.27,29.98,14,7,18,0.00
2012-1-21,26.6,19.6,14.6,20.1,16.0,12.2,93,86,70,30.30,30.03,15,8,18,0.00
2012-1-22,45.2,33.3,21.3,44.6,32.5,19.0,98,97,91,30.03,29.39,21,14,27,0.01
2012-1-23,46.6,35.2,30.7,46.1,31.6,25.0,98,87,78,30.05,29.35,24,15,33,0.01
2012-1-24,37.1,30.3,24.4,27.9,24.8,21.9,91,80,67,30.38,30.05,15,5,19,0.00
2012-1-25,33.4,30.0,24.3,30.5,27.4,21.8,100,90,83,30.37,30.05,14,6,16,0.00
2012-1-26,38.8,33.6,31.3,36.9,32.3,30.0,97,95,89,30.05,29.74,16,5,17,0.00
2012-1-27,38.6,32.8,25.0,32.0,29.2,23.0,97,87,64,30.05,29.79,13,5,15,0.00
2012-1-28,33.8,28.2,19.0,31.9,23.9,15.4,97,84,74,30.25,30.00,18,7,21,0.05
2012-1-29,33.4,28.2,21.8,26.0,21.9,17.2,86,77,66,30.28,30.09,20,8,23,0.00
2012-1-30,59.1,43.3,29.2,45.9,35.2,23.3,81,74,55,30.20,29.87,21,10,24,0.01
2012-1-31,60.6,51.1,40.3,52.9,45.6,36.3,92,82,73,30.00,29.80,20,10,25,0.00
2012-2-1,48.7,38.7,31.1,42.9,35.5,29.5,96,88,76,30.20,30.00,9,3,12,0.00
2012-2-2,56.2,39.1,25.6,42.9,34.5,24.5,98,85,55,30.36,30.19,5,1,6,0.00
2012-2-3,54.7,41.9,32.6,43.0,37.5,31.6,97,86,60,30.40,30.21,17,7,21,0.03
2012-2-4,39.8,38.6,37.1,38.6,37.4,35.4,96,95,93,30.24,30.11,16,8,22,0.24
2012-2-5,44.6,35.7,30.3,37.3,32.4,28.5,95,88,71,30.35,30.22,14,4,14,0.00
2012-2-6,36.1,30.3,24.8,31.4,28.5,23.7,97,93,82,30.32,30.19,10,5,14,0.00
2012-2-7,33.4,28.7,21.5,31.5,27.3,20.0,97,95,90,30.43,30.21,6,2,10,0.00
2012-2-8,30.7,28.5,23.9,28.4,24.0,19.9,93,83,73,30.49,30.41,11,5,14,0.00
2012-2-9,32.8,26.2,14.8,28.5,21.8,12.9,94,84,70,30.41,30.15,11,5,13,0.00
2012-2-10,34.7,28.5,18.4,31.8,24.6,15.2,91,85,74,30.35,30.01,26,12,30,0.00
2012-2-11,25.2,17.3,9.4,14.5,7.8,3.7,85,67,46,30.59,30.35,26,15,33,0.01
2012-2-12,34.8,22.1,13.1,15.2,9.9,6.4,83,61,33,30.57,30.30,19,9,22,0.00
2012-2-13,33.4,29.3,21.5,30.3,23.1,10.6,95,79,53,30.30,29.86,14,8,19,0.00
2012-2-14,35.1,32.4,29.9,32.5,30.7,28.1,97,93,88,30.04,29.83,13,6,15,0.01
2012-2-15,43.5,37.3,29.6,40.2,35.3,28.1,100,93,86,30.04,29.94,13,5,20,0.19
2012-2-16,45.7,38.8,29.9,37.7,32.6,26.5,97,80,55,30.23,29.99,18,8,22,0.11
2012-2-17,53.6,39.4,28.4,39.4,31.9,25.3,89,76,49,30.24,30.06,22,7,27,0.00
2012-2-18,42.5,33.4,26.2,29.8,25.4,21.8,89,74,48,30.26,30.14,9,4,13,0.00
2012-2-19,41.4,30.2,22.2,27.4,22.7,19.1,92,75,48,30.24,30.15,8,2,11,0.00
2012-2-20,44.2,34.8,21.3,34.6,26.7,18.0,89,73,53,30.28,29.81,19,11,23,0.05
2012-2-21,51.5,41.0,33.0,41.4,34.1,28.3,94,78,47,29.81,29.65,20,10,29,0.03
2012-2-22,55.5,41.7,33.0,37.1,32.3,28.3,86,70,45,29.75,29.43,14,5,18,0.00
2012-2-23,51.8,40.3,32.3,45.6,37.1,28.3,96,88,76,29.50,29.33,17,5,20,0.12
2012-2-24,38.9,32.7,25.3,37.9,28.0,20.2,96,83,67,30.12,29.45,27,18,33,0.03
2012-2-25,34.5,27.4,22.5,25.9,20.8,17.0,94,76,57,30.35,30.11,20,9,25,0.00
2012-2-26,60.9,41.9,25.1,36.3,28.7,19.8,85,62,37,30.26,29.97,27,14,33,0.00
2012-2-27,42.2,32.5,23.8,29.8,23.0,19.4,86,69,46,30.49,30.16,21,7,23,0.00
2012-2-28,57.8,40.9,24.2,44.7,32.2,20.5,94,73,41,30.48,29.62,18,12,24,0.18
2012-2-29,57.2,47.9,36.1,54.4,37.4,27.9,96,68,46,29.80,29.48,31,19,37,0.01
2012-3-1,52.7,40.6,31.5,36.6,32.0,27.6,88,72,49,29.91,29.61,17,7,19,0.00
2012-3-2,41.6,36.0,32.3,36.9,33.2,27.3,96,90,78,29.80,29.40,28,10,33,0.27
2012-3-3,35.4,31.7,24.0,27.5,25.6,20.7,89,78,66,29.94,29.79,22,12,27,0.01
2012-3-4,33.7,26.2,16.2,27.5,22.6,14.0,95,87,66,30.15,29.90,11,5,14,0.00
2012-3-5,40.4,25.9,5.2,31.9,20.7,2.1,94,81,67,30.45,30.15,16,6,19,0.14
2012-3-6,72.4,53.9,35.1,46.7,36.1,28.4,78,54,28,30.17,29.84,27,15,35,0.00
2012-3-7,68.6,61.2,45.3,56.0,48.7,40.8,91,64,57,29.92,29.80,25,16,32,0.30
2012-3-8,45.3,37.5,32.0,42.5,31.2,26.8,94,79,52,30.39,29.89,25,14,29,0.27
2012-3-9,45.2,36.0,28.5,29.1,22.8,16.0,89,61,34,30.61,30.38,16,7,19,0.00
2012-3-10,62.9,45.2,29.0,37.4,28.8,21.9,76,55,31,30.49,30.23,18,9,25,0.00
2012-3-11,65.1,51.5,34.8,50.3,38.8,27.7,94,64,37,30.24,29.91,21,10,26,0.05
2012-3-12,65.4,57.3,46.4,57.1,53.3,44.2,96,87,70,29.94,29.76,19,10,22,0.08
2012-3-13,75.2,56.9,40.0,57.4,48.1,39.0,98,76,45,30.11,29.94,8,3,12,0.00
2012-3-14,81.6,68.6,58.5,65.1,59.1,49.9,87,73,53,29.99,29.87,20,10,24,0.00
2012-3-15,81.6,69.5,58.7,64.7,60.3,54.8,93,74,51,30.02,29.91,19,9,23,0.00
2012-3-16,79.8,66.6,54.8,64.4,56.9,50.3,92,72,48,30.04,29.94,15,8,20,0.00
2012-3-17,80.0,66.1,55.2,65.5,58.5,52.9,97,78,53,30.02,29.89,20,7,30,0.00
2012-3-18,81.1,69.4,60.4,65.1,60.7,55.2,89,75,51,30.01,29.88,16,10,21,0.00
2012-3-19,81.0,70.5,63.2,66.8,61.8,56.0,94,76,55,29.93,29.75,23,13,29,0.09
2012-3-20,82.3,71.3,58.4,61.2,55.6,51.7,86,60,37,29.93,29.81,22,12,30,0.00
2012-3-21,82.1,70.9,56.1,59.6,56.4,52.1,90,62,37,30.01,29.91,20,7,27,0.00
2012-3-22,72.7,63.5,59.0,60.8,58.3,54.4,97,84,59,30.02,29.92,16,7,19,0.53
2012-3-23,70.3,58.0,49.9,57.5,52.7,48.2,98,84,48,29.95,29.75,11,3,14,0.08
2012-3-24,70.3,58.5,49.6,61.5,55.1,48.3,97,89,67,29.95,29.78,13,4,17,0.00
2012-3-25,75.1,62.0,50.7,61.0,54.9,49.9,98,80,50,30.07,29.96,8,2,12,0.02
2012-3-26,56.7,52.1,47.7,52.4,39.9,32.6,91,65,41,30.26,30.04,18,12,24,0.00
2012-3-27,80.3,62.7,47.2,62.2,48.9,37.1,86,62,45,30.12,29.82,22,14,29,0.08
2012-3-28,74.4,63.1,50.4,59.7,46.4,37.6,93,58,31,30.00,29.84,18,7,21,0.00
2012-3-29,58.0,52.1,46.9,47.9,43.5,38.2,83,73,56,30.06,29.83,18,10,20,0.00
2012-3-30,68.1,58.1,48.9,57.3,51.0,45.2,92,78,62,29.90,29.67,17,9,21,0.00
2012-3-31,68.4,55.2,45.4,53.8,46.5,41.6,90,74,50,29.95,29.73,14,7,17,0.00
2012-4-1,87.7,70.3,54.3,65.5,57.2,51.8,93,67,31,29.76,29.55,14,7,20,0.01
2012-4-2,85.3,68.0,53.8,66.6,58.6,50.9,90,74,49,29.76,29.61,16,10,19,0.00
2012-4-3,84.8,71.1,57.6,62.4,59.3,50.8,95,69,36,29.84,29.73,16,4,19,0.17
2012-4-4,67.1,57.3,48.3,51.7,42.4,27.6,82,60,36,29.89,29.77,11,7,16,0.00
2012-4-5,60.9,51.6,43.0,41.2,34.3,28.1,65,52,37,30.12,29.84,11,7,17,0.00
2012-4-6,60.7,46.3,30.1,35.4,30.9,26.0,87,58,33,30.28,30.13,14,4,18,0.00
2012-4-7,63.7,51.0,33.8,50.0,39.9,30.5,93,69,39,30.26,30.10,18,6,23,0.00
2012-4-8,68.1,51.9,32.8,45.6,32.9,24.5,96,56,21,30.36,30.10,15,6,19,0.00
2012-4-9,67.7,55.7,40.6,36.6,30.8,25.3,72,42,22,30.15,30.00,30,12,34,0.00
2012-4-10,57.9,45.9,33.3,27.3,24.0,19.5,68,44,24,30.21,30.09,25,8,30,0.00
2012-4-11,57.1,42.8,26.8,30.3,25.1,20.6,81,52,29,30.34,30.19,6,2,15,0.00
2012-4-12,65.1,48.6,27.9,33.2,28.2,21.8,90,50,26,30.30,30.10,10,3,15,0.00
2012-4-13,54.1,51.1,47.2,47.7,41.6,32.2,89,71,47,30.16,29.97,23,12,28,0.36
2012-4-14,70.8,59.5,46.8,64.6,56.7,44.5,97,91,78,29.97,29.65,15,6,20,0.54
2012-4-15,74.0,68.6,59.5,65.2,62.1,55.8,94,80,72,29.70,29.51,23,15,32,0.35
2012-4-16,61.9,54.8,45.1,55.8,46.2,41.1,90,74,51,30.24,29.51,29,16,35,0.01
2012-4-17,66.4,53.5,40.2,46.8,42.3,37.5,93,68,41,30.38,30.23,9,2,14,0.00
2012-4-18,76.1,62.0,47.1,53.4,49.1,43.4,92,65,42,30.23,29.94,20,9,25,0.00
2012-4-19,77.5,65.8,54.9,53.8,49.2,44.9,78,57,33,29.95,29.65,17,10,22,0.00
2012-4-20,66.5,49.1,42.6,57.6,43.7,37.5,96,82,53,30.05,29.64,22,7,25,0.08
2012-4-21,58.7,47.8,33.8,43.8,37.7,32.3,96,70,44,30.09,29.97,8,2,12,0.00
2012-4-22,58.3,49.1,38.9,43.5,35.8,29.4,90,62,36,30.15,29.90,10,3,13,0.02
2012-4-23,62.4,49.1,33.3,42.0,35.1,28.3,86,61,37,30.14,29.89,20,6,29,0.00
2012-4-24,75.3,58.6,43.2,53.3,45.1,37.3,84,63,40,29.89,29.59,10,4,16,0.00
2012-4-25,82.6,65.9,48.0,62.9,55.6,45.5,96,71,49,29.64,29.47,15,6,19,0.00
2012-4-26,72.4,62.3,48.8,59.7,49.2,38.8,92,65,39,30.08,29.58,14,4,16,0.00
2012-4-27,58.9,50.6,39.6,38.8,27.8,21.9,71,43,26,30.22,29.92,21,14,31,0.00
2012-4-28,62.9,52.9,47.5,53.5,45.5,30.4,89,77,40,30.12,29.85,22,10,26,0.11
2012-4-29,54.4,50.0,45.4,53.6,47.6,41.7,97,91,83,30.15,29.96,17,8,21,0.72
2012-4-30,61.0,57.0,54.4,58.4,55.4,52.7,98,94,88,30.00,29.88,24,5,29,0.22
2012-5-1,69.9,59.3,50.8,65.6,57.5,49.6,98,94,84,29.99,29.76,19,7,23,0.53
2012-5-2,83.0,70.3,62.1,72.9,65.1,60.7,96,84,65,29.99,29.74,23,7,27,0.26
2012-5-3,83.2,75.0,67.9,73.6,69.0,64.6,91,82,67,29.93,29.71,21,9,30,0.00
2012-5-4,77.1,68.3,58.1,69.2,64.2,56.5,96,87,72,29.98,29.85,27,6,39,1.41
2012-5-5,82.8,71.7,59.5,73.1,66.3,58.1,96,84,69,29.91,29.84,12,6,15,0.00
2012-5-6,88.0,76.6,66.1,75.3,69.8,63.8,95,81,57,29.89,29.72,13,6,15,0.00
2012-5-7,71.2,65.5,57.1,69.4,61.1,52.6,96,86,61,29.91,29.76,11,4,17,0.04
2012-5-8,70.7,62.5,55.7,53.6,48.7,43.1,89,63,38,29.97,29.89,19,10,25,0.00
2012-5-9,68.5,58.8,47.6,52.3,47.3,44.1,90,67,47,29.98,29.91,16,7,25,0.00
2012-5-10,71.7,59.6,42.6,51.0,45.7,40.9,97,64,37,30.03,29.93,9,2,12,0.00
2012-5-11,79.7,67.2,51.3,55.4,51.1,46.6,86,58,41,30.11,30.00,13,6,19,0.00
2012-5-12,70.3,63.5,56.7,62.5,57.4,53.5,91,81,70,30.22,30.10,5,2,11,0.00
2012-5-13,73.8,63.5,54.7,53.8,44.7,38.2,88,54,29,30.23,30.10,7,2,16,0.00
2012-5-14,78.9,64.9,44.7,50.0,42.2,32.7,89,49,24,30.13,30.00,11,2,17,0.00
2012-5-15,84.3,70.2,52.2,54.6,49.1,42.7,72,49,33,30.02,29.86,15,8,21,0.00
2012-5-16,72.6,64.3,55.6,54.8,46.3,37.6,76,54,35,30.09,29.89,10,3,15,0.00
2012-5-17,78.4,63.8,43.4,46.4,40.1,34.2,78,44,25,30.12,29.97,11,5,18,0.00
2012-5-18,85.4,70.9,53.4,58.6,51.3,41.9,71,52,32,30.02,29.88,13,6,20,0.00
2012-5-19,89.7,77.1,60.6,63.7,60.0,55.1,84,58,36,29.99,29.90,14,6,20,0.00
2012-5-20,87.5,77.0,62.9,68.8,61.3,50.1,72,59,43,30.09,29.93,19,10,24,0.00
2012-5-21,73.8,63.3,51.5,50.5,46.0,42.2,78,55,35,30.17,30.07,7,3,15,0.00
2012-5-22,77.9,64.8,47.5,52.9,48.6,42.7,94,59,34,30.09,29.87,9,2,12,0.00
2012-5-23,82.8,70.7,53.7,54.9,50.8,47.3,80,52,34,29.89,29.65,16,8,24,0.00
2012-5-24,90.7,78.5,64.9,67.5,57.9,50.8,80,51,35,29.71,29.50,22,12,33,0.06
2012-5-25,84.7,73.5,60.8,67.6,60.3,54.7,91,66,37,30.00,29.71,11,3,14,0.00
2012-5-26,91.4,79.3,66.0,73.9,66.9,56.6,81,67,53,30.03,29.90,11,4,19,0.00
2012-5-27,91.9,83.0,73.0,72.3,66.8,62.9,80,60,40,29.93,29.76,13,7,21,0.00
2012-5-28,90.3,81.2,69.2,70.9,67.4,64.3,95,64,50,29.79,29.68,19,9,29,0.25
2012-5-29,81.7,71.7,61.3,68.0,56.4,47.5,93,62,32,29.89,29.78,16,5,20,0.00
2012-5-30,74.0,64.0,51.4,51.4,48.3,44.8,87,59,37,29.96,29.85,14,4,17,0.00
2012-5-31,58.1,52.9,48.1,50.7,48.3,44.9,95,85,68,29.93,29.82,16,6,20,0.56
2012-6-1,66.7,55.6,44.1,51.3,46.5,42.3,95,74,49,29.93,29.86,15,6,22,0.00
2012-6-2,73.9,61.4,48.3,59.4,52.6,45.5,92,75,52,29.87,29.77,12,5,16,0.00
2012-6-3,81.1,68.5,51.6,62.0,55.3,49.8,96,67,39,29.90,29.79,9,3,13,0.00
2012-6-4,74.4,67.2,58.8,64.7,60.2,55.9,92,79,66,29.89,29.76,15,5,19,0.01
2012-6-5,79.2,66.9,52.6,57.4,54.4,50.6,96,67,41,29.99,29.89,6,2,10,0.01
2012-6-6,76.5,65.2,51.5,58.0,52.4,48.6,91,66,42,30.07,29.98,9,2,13,0.00
2012-6-7,82.6,69.1,50.9,61.2,52.5,48.7,94,60,33,30.14,30.04,5,1,12,0.00
2012-6-8,86.1,72.3,53.1,59.2,54.4,50.5,94,57,36,30.09,29.91,8,2,11,0.00
2012-6-9,88.0,76.8,63.4,63.5,58.1,52.0,69,54,39,29.94,29.79,10,5,18,0.00
2012-6-10,87.2,78.2,67.6,68.9,64.6,58.9,75,64,49,29.89,29.78,17,8,23,0.00
2012-6-11,81.5,74.1,66.6,71.3,67.5,59.1,95,81,62,29.92,29.72,20,5,26,0.06
2012-6-12,75.8,66.7,55.3,59.1,51.5,42.0,88,61,33,30.12,29.92,15,6,19,0.00
2012-6-13,76.4,64.4,47.7,55.4,51.1,45.1,94,65,40,30.18,30.00,13,4,16,0.00
2012-6-14,86.7,71.8,54.5,63.1,57.0,50.3,90,63,39,30.06,29.90,11,5,17,0.00
2012-6-15,89.3,77.1,61.7,66.9,62.8,57.2,86,64,42,30.01,29.89,17,7,23,0.00
2012-6-16,92.2,78.1,68.1,74.8,69.3,65.2,97,76,51,30.00,29.82,28,6,40,1.50
2012-6-17,87.7,76.1,66.9,71.4,67.8,55.1,98,78,43,29.93,29.74,8,4,11,0.00
2012-6-18,89.9,81.6,74.2,75.0,70.9,66.4,89,71,51,29.78,29.66,14,8,22,0.00
2012-6-19,89.7,81.5,73.0,76.4,71.2,66.2,84,71,58,29.90,29.78,13,7,23,0.00
2012-6-20,90.1,81.8,73.5,75.2,69.5,64.3,81,67,55,29.97,29.82,11,7,17,0.00
2012-6-21,82.5,75.1,64.6,69.0,65.7,60.6,90,74,50,30.00,29.88,12,5,16,0.00
2012-6-22,84.4,72.6,59.0,66.5,60.4,56.4,93,69,43,30.04,29.94,6,1,12,0.00
2012-6-23,82.0,71.0,58.4,66.1,62.0,56.4,96,75,46,30.03,29.92,9,2,17,0.01
2012-6-24,92.7,75.0,65.0,78.7,67.9,60.4,94,80,53,30.05,29.86,14,3,26,0.38
2012-6-25,80.7,74.0,60.4,70.7,60.6,51.3,92,65,38,30.01,29.89,11,4,14,0.00
2012-6-26,81.1,66.9,48.8,65.3,56.1,46.6,95,71,44,30.04,29.89,11,4,15,0.00
2012-6-27,90.6,75.6,55.7,68.4,61.1,52.2,91,63,42,29.94,29.76,10,4,15,0.00
2012-6-28,97.8,83.8,67.3,84.3,73.8,64.0,93,74,51,29.86,29.77,12,4,16,0.00
2012-6-29,98.8,86.1,74.1,82.3,75.9,65.7,96,74,52,29.86,29.71,11,2,16,0.00
2012-6-30,92.4,80.1,69.0,79.0,71.8,65.3,92,77,53,29.87,29.77,9,3,12,0.03
2012-7-1,90.0,79.2,72.8,78.2,72.2,65.1,95,80,57,29.96,29.82,18,2,24,0.05
2012-7-2,98.8,82.3,69.2,80.6,72.6,67.0,97,75,47,29.96,29.87,9,1,12,0.00
2012-7-3,95.8,83.1,66.8,82.0,72.5,64.4,93,72,50,29.92,29.79,6,2,10,0.00
2012-7-4,99.4,86.2,74.7,81.7,73.0,68.8,90,67,39,29.89,29.82,8,2,11,0.00
2012-7-5,98.8,85.9,71.0,81.4,72.6,66.2,89,67,40,29.94,29.87,7,2,11,0.00
2012-7-6,103.9,88.3,72.0,82.6,75.0,69.3,93,68,37,29.97,29.88,3,1,5,0.00
2012-7-7,103.2,88.6,74.6,82.2,74.9,70.5,91,67,40,29.95,29.85,4,1,6,0.00
2012-7-8,88.9,79.5,68.0,73.8,67.2,60.8,84,67,45,30.02,29.91,8,2,12,0.00
2012-7-9,92.4,77.7,62.8,68.2,62.8,58.8,91,64,34,30.05,29.95,5,1,10,0.00
2012-7-10,89.1,77.2,64.7,67.5,64.1,59.6,94,66,45,30.05,29.98,11,4,14,0.00
2012-7-11,89.3,76.7,64.8,65.0,59.8,54.1,76,58,38,30.11,30.00,12,3,15,0.00
2012-7-12,96.2,79.4,63.4,68.7,62.9,56.8,86,60,34,30.04,29.95,6,1,9,0.00
2012-7-13,95.2,76.0,65.2,73.3,67.5,62.0,95,77,41,30.03,29.96,15,2,20,0.09
2012-7-14,91.7,78.8,69.2,74.9,70.6,68.1,97,78,49,30.05,29.94,6,1,9,0.01
2012-7-15,96.5,82.3,68.0,75.7,71.5,66.5,97,73,44,30.05,29.94,5,2,9,0.00
2012-7-16,96.7,84.8,71.0,77.6,72.9,67.8,91,69,48,29.99,29.81,5,2,9,0.00
2012-7-17,97.8,85.6,73.7,76.1,72.5,69.5,90,67,43,29.86,29.77,9,3,14,0.00
2012-7-18,101.1,88.0,73.5,81.1,72.4,68.6,86,62,39,29.89,29.77,8,2,12,0.00
2012-7-19,92.8,84.0,74.5,76.8,72.7,67.2,86,69,55,29.95,29.78,12,5,17,0.02
2012-7-20,85.8,75.4,67.6,69.5,67.0,64.2,89,76,56,30.06,29.94,5,2,10,0.00
2012-7-21,90.2,76.6,60.9,71.9,65.6,59.5,97,72,46,30.10,29.99,5,1,7,0.00
2012-7-22,95.9,82.0,68.9,70.5,66.6,62.7,83,62,40,30.11,29.96,8,2,12,0.00
2012-7-23,103.7,87.6,73.9,78.6,70.1,65.1,74,58,35,29.99,29.87,11,4,15,0.00
2012-7-24,95.5,85.2,73.4,77.4,72.7,68.5,85,67,50,29.93,29.81,8,3,13,0.00
2012-7-25,101.4,88.0,72.7,75.3,71.1,68.0,93,61,35,29.84,29.59,12,5,17,0.00
2012-7-26,89.4,78.7,68.1,75.3,70.5,66.0,94,77,52,29.81,29.58,18,5,20,0.04
2012-7-27,85.4,75.5,64.5,68.5,64.4,61.9,94,71,47,29.99,29.79,15,5,20,0.00
2012-7-28,85.8,72.9,60.6,69.7,64.9,58.6,96,78,51,30.12,30.00,7,1,9,0.00
2012-7-29,91.8,76.3,63.4,70.5,67.2,61.4,97,76,46,30.09,29.88,11,2,13,0.02
2012-7-30,91.9,79.1,66.3,75.7,69.8,64.4,95,75,52,29.91,29.85,5,1,5,0.00
2012-7-31,95.1,80.5,67.3,77.0,69.7,63.9,97,73,38,29.91,29.85,10,3,14,0.00
2012-8-1,96.4,78.9,61.9,70.6,64.4,59.7,97,66,34,29.93,29.80,7,2,9,0.00
2012-8-2,95.6,79.1,62.1,73.6,67.3,58.8,92,70,45,29.84,29.70,9,3,12,0.00
2012-8-3,93.7,80.3,69.0,74.0,71.4,66.9,98,77,50,29.83,29.77,9,3,13,0.00
2012-8-4,89.4,78.9,70.2,78.7,73.7,67.8,95,85,65,29.93,29.78,15,3,20,0.25
2012-8-5,84.2,74.5,63.9,70.3,64.2,60.4,96,73,46,30.14,29.92,12,4,16,0.00
2012-8-6,89.5,72.4,55.2,64.2,58.9,53.5,97,68,34,30.15,29.98,6,1,7,0.00
2012-8-7,98.8,79.1,57.5,74.0,62.5,55.2,94,63,28,29.99,29.87,6,1,10,0.00
2012-8-8,82.1,73.8,68.0,71.8,67.0,62.9,91,80,62,29.97,29.85,7,1,7,0.03
2012-8-9,85.5,74.4,65.1,71.8,67.0,62.1,97,79,57,29.91,29.78,15,3,21,0.00
2012-8-10,79.7,67.3,58.9,61.8,57.9,54.3,96,74,44,30.00,29.86,8,3,15,0.00
2012-8-11,82.3,67.1,50.3,58.4,53.6,48.1,95,66,37,30.04,29.95,9,2,12,0.00
2012-8-12,74.1,64.0,51.2,64.2,57.1,49.0,94,79,58,30.01,29.89,7,2,8,0.33
2012-8-13,72.8,66.3,58.5,64.4,61.9,57.0,95,86,73,29.98,29.85,15,3,17,0.06
2012-8-14,82.5,68.4,53.4,65.9,59.9,52.6,98,78,49,29.99,29.90,7,2,11,0.01
2012-8-15,89.8,73.4,56.5,64.9,60.5,54.9,96,68,39,29.98,29.83,8,3,11,0.00
2012-8-16,80.0,71.9,61.6,70.5,64.1,58.0,93,77,62,29.99,29.78,18,6,22,0.05
2012-8-17,77.6,64.8,50.6,58.4,53.3,48.7,95,70,41,30.05,29.97,8,2,10,0.00
2012-8-18,80.5,65.3,47.0,58.6,51.3,45.2,97,65,34,30.02,29.91,8,1,15,0.00
2012-8-19,81.3,68.3,57.9,58.0,54.0,48.3,90,64,33,29.98,29.90,9,2,15,0.00
2012-8-20,81.9,66.4,49.6,59.1,53.9,47.6,96,68,36,30.00,29.92,9,2,12,0.00
2012-8-21,85.3,68.2,50.2,56.4,50.1,44.7,95,59,26,30.05,29.98,6,1,10,0.00
2012-8-22,94.1,71.8,49.8,60.8,54.3,46.9,92,60,28,30.07,29.96,7,2,10,0.00
2012-8-23,96.9,78.9,60.0,60.8,57.0,52.3,79,51,27,30.04,29.92,7,2,11,0.00
2012-8-24,96.5,81.8,68.1,63.2,58.7,56.2,76,48,27,30.00,29.89,8,3,11,0.00
2012-8-25,93.0,80.4,63.1,68.0,62.2,56.8,86,56,32,29.99,29.88,13,5,19,0.00
2012-8-26,76.6,73.2,70.3,74.5,70.5,67.6,97,91,74,29.98,29.91,6,2,9,2.33
2012-8-27,88.8,76.4,67.4,72.4,67.8,63.5,98,78,44,30.10,29.96,6,2,12,0.00
2012-8-28,91.1,76.2,62.5,69.8,65.4,61.0,97,73,43,30.11,29.97,4,1,5,0.00
2012-8-29,91.4,77.0,62.2,68.3,64.7,60.7,96,69,41,30.04,29.92,7,2,10,0.00
2012-8-30,95.7,79.6,63.6,66.9,64.0,61.2,94,63,34,30.01,29.90,6,2,15,0.00
2012-8-31,82.1,74.9,65.3,74.1,69.8,61.3,97,85,64,30.04,29.94,14,3,17,0.46
2012-9-1,79.9,74.6,72.6,75.4,73.0,71.8,98,95,83,29.93,29.77,15,8,18,0.74
2012-9-2,84.0,75.9,71.3,76.3,72.8,69.6,98,91,74,29.86,29.76,6,1,9,0.18
2012-9-3,90.1,78.9,69.0,76.0,72.3,68.1,98,82,58,29.90,29.83,4,1,6,0.00
2012-9-4,94.0,81.2,71.9,74.7,71.5,68.6,97,75,48,29.88,29.77,6,1,9,0.00
2012-9-5,85.7,74.4,63.6,72.6,67.7,61.8,94,80,58,29.93,29.76,18,5,23,0.21
2012-9-6,86.5,75.1,62.7,69.5,64.2,56.7,96,73,38,29.95,29.82,6,1,6,0.00
2012-9-7,80.9,67.6,57.5,69.7,63.5,55.5,97,88,66,29.92,29.75,14,4,17,0.24
2012-9-8,73.0,61.8,51.6,56.0,52.1,49.0,96,73,44,30.00,29.87,13,7,18,0.01
2012-9-9,73.9,62.4,52.4,56.5,52.2,49.3,91,71,44,30.15,29.88,8,3,12,0.02
2012-9-10,80.1,64.0,46.8,58.7,51.9,45.4,98,69,38,30.22,30.06,6,2,11,0.00
2012-9-11,85.8,69.8,55.5,61.2,57.2,52.7,92,67,39,30.13,30.01,9,4,15,0.00
2012-9-12,87.5,72.9,59.1,64.9,59.4,55.4,91,66,34,30.13,30.04,8,4,12,0.00
2012-9-13,67.5,60.4,53.2,60.3,55.6,50.9,95,85,65,30.34,30.10,5,2,13,0.29
2012-9-14,72.4,59.9,49.3,56.1,50.4,43.7,100,75,37,30.39,30.30,4,1,5,0.00
2012-9-15,76.8,61.3,45.6,56.6,49.5,44.0,97,70,39,30.32,30.14,7,2,10,0.00
2012-9-16,78.2,62.4,44.2,62.0,54.0,42.9,98,77,47,30.14,29.96,9,2,11,0.00
2012-9-17,78.0,63.0,51.3,66.4,58.9,48.5,98,88,62,29.96,29.75,11,3,16,0.02
2012-9-18,64.2,53.0,42.3,48.2,42.4,37.2,95,71,38,30.06,29.88,15,5,18,0.01
2012-9-19,76.6,60.2,42.4,54.2,46.0,39.1,90,63,36,30.07,29.84,13,5,19,0.00
2012-9-20,71.9,60.1,46.0,54.8,43.2,33.6,95,59,25,29.97,29.87,15,5,21,0.00
2012-9-21,72.3,58.1,43.5,59.1,48.0,41.3,92,70,40,29.98,29.68,11,3,13,0.04
2012-9-22,61.3,50.4,40.5,48.4,39.8,32.3,97,70,43,30.24,29.85,20,6,27,0.00
2012-9-23,64.2,48.3,32.4,44.2,34.6,30.0,96,65,28,30.32,30.23,13,4,19,0.00
2012-9-24,72.7,55.6,33.6,47.0,38.6,29.8,88,57,31,30.26,29.91,14,5,19,0.00
2012-9-25,78.3,65.9,56.1,65.9,59.3,47.0,96,80,61,29.91,29.79,9,4,13,0.11
2012-9-26,75.6,65.6,58.1,68.2,60.6,50.8,98,85,62,30.08,29.85,5,1,10,0.00
2012-9-27,72.8,60.8,53.2,53.4,47.0,43.1,86,63,36,30.20,30.08,8,2,11,0.00
2012-9-28,70.4,57.0,42.5,50.7,45.9,40.6,96,69,41,30.22,30.10,5,1,8,0.00
2012-9-29,79.8,58.9,40.3,50.0,44.2,38.0,94,64,30,30.16,29.95,7,2,12,0.00
2012-9-30,76.3,60.0,45.3,52.0,47.5,42.1,91,67,37,29.96,29.86,6,2,12,0.00
2012-10-1,66.2,56.0,46.9,51.8,46.4,43.9,92,72,47,29.91,29.80,8,1,11,0.00
2012-10-2,74.6,58.7,42.5,53.5,46.6,39.2,92,67,39,29.88,29.81,5,1,10,0.00
2012-10-3,70.8,62.1,56.1,55.7,53.6,48.2,93,75,45,30.01,29.87,8,2,12,0.01
2012-10-4,73.1,56.5,47.1,58.9,51.1,45.5,95,84,57,30.19,30.01,20,8,21,0.34
2012-10-5,47.4,43.2,35.5,45.7,38.9,32.5,94,85,69,30.26,30.15,17,5,20,0.10
2012-10-6,46.0,39.1,29.6,35.1,32.0,27.0,92,76,57,30.28,30.19,15,7,21,0.00
2012-10-7,51.5,42.4,34.1,34.5,29.8,25.0,90,63,36,30.28,30.17,12,5,16,0.00
2012-10-8,61.2,47.0,33.5,36.9,33.2,28.0,86,62,36,30.18,30.01,18,8,24,0.00
2012-10-9,68.2,52.3,42.6,46.9,41.7,36.5,93,70,41,30.02,29.85,18,10,23,0.07
2012-10-10,55.8,44.2,33.4,42.0,32.8,29.8,92,67,38,30.24,30.02,17,7,22,0.00
2012-10-11,69.5,52.9,37.3,48.0,39.2,31.6,82,62,38,30.23,30.07,15,7,18,0.00
2012-10-12,60.5,51.0,42.4,43.4,37.4,30.0,75,61,41,30.41,30.20,15,6,15,0.00
2012-10-13,70.3,60.3,50.1,66.2,57.1,43.3,96,89,71,30.21,29.72,16,8,25,0.87
2012-10-14,69.2,59.9,49.2,64.2,56.7,46.2,97,89,76,29.88,29.52,23,13,29,0.94
2012-10-15,65.4,52.0,41.1,48.5,44.3,39.8,96,78,48,30.00,29.88,8,3,11,0.00
2012-10-16,79.7,60.7,44.7,57.4,49.9,41.7,91,70,41,29.93,29.52,17,8,24,0.00
2012-10-17,65.6,58.7,48.9,58.4,52.5,44.0,96,80,59,29.55,29.32,23,10,23,0.72
2012-10-18,53.3,47.2,43.3,43.7,40.3,36.0,95,78,52,29.52,29.44,23,13,29,0.15
2012-10-19,52.6,47.8,43.7,46.6,44.5,42.5,96,89,72,29.74,29.43,18,10,21,0.08
2012-10-20,57.6,48.3,42.6,45.8,43.8,40.0,96,85,63,29.92,29.74,10,4,13,0.00
2012-10-21,72.6,56.2,41.5,59.5,50.5,39.8,96,83,62,29.95,29.87,12,7,16,0.01
2012-10-22,75.7,67.3,60.1,68.4,64.0,56.7,97,89,78,29.91,29.82,13,7,17,0.26
2012-10-23,75.2,67.8,63.0,66.0,64.1,60.6,95,88,70,29.89,29.79,11,6,15,0.01
2012-10-24,82.1,71.2,61.1,68.3,63.9,58.9,93,78,62,29.89,29.77,14,8,17,0.00
2012-10-25,77.3,59.4,40.7,66.1,54.3,35.6,94,84,67,30.18,29.66,25,15,29,0.27
2012-10-26,48.8,40.2,32.6,35.3,31.9,29.6,90,73,52,30.38,30.18,20,8,23,0.00
2012-10-27,46.9,36.7,27.9,32.1,28.9,25.2,91,75,52,30.40,30.28,10,3,12,0.00
2012-10-28,50.9,38.3,28.0,37.5,30.0,24.5,92,73,49,30.33,30.26,6,2,11,0.00
2012-10-29,53.2,38.5,27.2,36.1,28.9,24.9,92,71,38,30.37,30.17,6,2,9,0.00
2012-10-30,54.1,40.6,32.2,31.6,27.3,23.1,82,62,30,30.17,29.89,23,10,28,0.00
2012-10-31,51.5,37.3,26.9,30.4,25.6,22.9,89,66,33,29.98,29.92,18,10,24,0.00
2012-11-1,62.9,44.1,28.4,43.6,33.5,23.3,87,68,46,30.00,29.85,13,6,16,0.00
2012-11-2,50.5,40.1,30.5,35.0,31.0,27.2,88,71,47,30.12,29.95,10,2,10,0.00
2012-11-3,48.4,40.7,30.7,38.5,34.6,28.4,91,80,61,30.23,30.07,14,5,17,0.01
2012-11-4,48.7,36.7,25.4,38.3,32.2,23.5,96,84,61,30.29,30.19,5,1,6,0.02
2012-11-5,42.6,39.9,37.7,38.6,36.7,35.7,94,88,78,30.20,30.11,14,4,17,0.07
2012-11-6,43.2,41.0,38.2,42.4,38.8,34.6,100,92,86,30.11,29.89,12,5,14,0.11
2012-11-7,44.3,41.4,40.5,40.2,38.0,34.6,97,88,76,30.20,29.92,11,4,12,0.01
2012-11-8,52.8,43.7,33.4,41.9,37.5,30.2,91,79,64,30.23,30.03,13,5,16,0.00
2012-11-9,66.0,51.8,38.6,52.8,45.9,36.2,94,82,61,30.05,29.88,9,4,12,0.00
2012-11-10,75.5,63.1,54.6,58.4,53.2,49.0,90,71,52,29.93,29.80,19,10,25,0.00
2012-11-11,68.1,53.7,33.1,58.2,48.3,29.1,96,83,69,30.09,29.67,21,13,33,0.59
2012-11-12,39.4,31.4,24.8,29.3,24.6,20.3,88,76,58,30.43,30.06,20,11,22,0.00
2012-11-13,46.0,33.1,22.0,28.8,24.9,19.3,91,74,45,30.56,30.43,6,3,6,0.00
2012-11-14,49.7,37.9,30.2,33.7,29.9,26.7,88,74,49,30.50,30.37,10,5,12,0.00
2012-11-15,53.6,39.6,29.9,36.1,30.5,26.7,89,72,43,30.40,30.33,5,2,7,0.00
2012-11-16,58.3,41.0,27.5,42.0,33.8,25.2,94,77,50,30.47,30.38,4,1,6,0.00
2012-11-17,56.3,41.4,29.6,38.0,32.1,26.6,90,72,40,30.52,30.40,11,3,13,0.00
2012-11-18,59.7,44.0,29.8,39.5,34.8,28.0,94,73,40,30.42,30.28,11,4,13,0.00
2012-11-19,52.2,46.7,40.6,45.9,40.9,35.0,88,80,73,30.28,30.10,10,3,12,0.03
2012-11-20,60.5,47.2,36.7,52.3,44.0,35.3,97,89,72,30.22,30.07,10,2,11,0.00
2012-11-21,59.6,46.2,36.9,53.0,43.8,36.1,100,92,68,30.26,30.08,9,4,11,0.01
2012-11-22,64.6,53.8,40.3,54.3,46.3,34.9,91,77,60,30.08,29.81,28,12,32,0.00
2012-11-23,40.2,32.7,23.8,35.0,23.6,18.4,85,69,56,30.35,30.08,25,15,34,0.00
2012-11-24,31.5,26.2,17.7,23.6,19.7,14.7,89,77,67,30.36,30.00,12,6,14,0.00
2012-11-25,44.6,37.3,29.9,31.1,28.1,23.0,82,70,56,30.12,29.90,12,5,13,0.00
2012-11-26,35.9,30.4,20.6,27.1,22.8,16.0,88,74,59,30.44,30.12,13,4,16,0.00
2012-11-27,35.5,25.2,13.1,21.1,15.9,9.9,89,69,45,30.49,30.33,9,3,11,0.00
2012-11-28,47.3,33.7,19.1,28.9,24.1,15.1,89,69,46,30.46,30.29,6,4,9,0.00
2012-11-29,55.3,40.8,29.2,39.1,32.3,25.4,89,73,52,30.29,30.05,12,4,14,0.00
2012-11-30,59.9,44.6,35.5,42.9,36.2,31.3,92,73,53,30.10,30.02,11,4,12,0.00
2012-12-1,62.5,51.4,33.5,54.9,47.0,30.9,95,85,76,30.10,29.88,13,6,17,0.01
2012-12-2,58.6,53.4,42.7,56.6,51.6,41.6,98,94,86,30.01,29.87,8,3,9,0.01
2012-12-3,73.1,62.0,49.7,62.9,56.9,47.9,98,85,66,29.97,29.75,23,11,28,0.05
2012-12-4,60.0,47.9,36.5,48.4,37.6,28.9,88,69,38,30.31,29.94,14,5,16,0.00
2012-12-5,44.0,36.6,26.9,33.7,30.1,24.0,90,78,57,30.43,30.17,12,5,13,0.00
2012-12-6,49.7,41.4,31.4,41.1,36.6,28.8,94,83,68,30.17,29.93,11,5,12,0.06
2012-12-7,45.9,43.7,40.2,44.4,42.5,39.3,97,95,94,29.97,29.85,6,2,9,0.10
2012-12-8,41.0,38.4,36.2,39.5,36.5,34.9,97,93,85,30.06,29.84,13,4,13,0.01
2012-12-9,43.1,39.0,29.1,42.3,37.1,25.2,97,93,85,30.01,29.79,22,10,24,0.03
2012-12-10,28.9,25.4,18.8,26.7,21.9,16.0,92,86,82,30.07,29.87,19,11,22,0.00
2012-12-11,37.7,26.0,16.9,26.9,20.8,14.5,92,81,61,30.21,30.06,15,6,15,0.00
2012-12-12,47.8,34.5,25.7,28.9,25.3,21.5,85,71,44,30.32,30.21,14,7,20,0.00
2012-12-13,51.0,38.2,31.0,31.3,27.3,24.3,80,66,43,30.28,30.13,17,7,19,0.00
2012-12-14,53.3,42.1,31.0,38.3,31.1,24.6,81,66,44,30.20,29.93,10,6,14,0.02
2012-12-15,51.1,47.2,41.4,49.4,44.9,37.8,96,92,81,29.93,29.55,20,10,22,0.44
2012-12-16,48.5,41.3,37.6,45.6,38.3,34.5,92,89,85,29.79,29.64,13,7,17,0.00
2012-12-17,37.5,35.5,31.6,34.3,32.9,30.1,95,90,86,29.79,29.69,7,2,9,0.00
2012-12-18,52.9,37.8,30.0,43.3,34.1,28.7,96,87,61,29.92,29.55,26,12,29,0.00
2012-12-19,40.8,36.3,32.5,39.7,33.9,30.5,96,91,86,30.04,29.55,22,9,26,0.20
2012-12-20,50.4,34.6,20.6,49.9,33.5,18.6,98,96,92,29.88,29.12,38,20,46,0.31
2012-12-21,26.2,19.4,13.4,20.9,15.7,9.3,99,85,77,30.32,29.87,27,15,30,0.00
2012-12-22,34.5,21.8,9.0,26.1,17.5,6.7,92,84,68,30.33,29.97,12,4,14,0.00
2012-12-23,34.0,25.2,17.6,26.3,21.6,15.7,94,86,72,30.06,29.95,5,1,7,0.00
2012-12-24,27.3,23.1,20.4,25.8,18.6,-99.9,95,89,86,30.18,29.89,18,-11,19,0.00
2012-12-25,26.2,22.4,17.6,21.8,19.1,15.2,92,87,81,30.36,30.18,9,4,12,0.00
2012-12-26,28.8,25.3,21.8,24.9,22.0,18.5,91,87,84,30.22,30.09,14,7,18,0.00
2012-12-27,30.6,25.6,18.8,24.6,21.2,16.1,90,83,73,30.26,30.11,13,5,18,0.00
2012-12-28,32.0,29.7,27.5,28.7,26.9,24.1,93,89,86,30.11,29.93,10,4,11,0.00
2012-12-29,28.9,21.7,12.5,27.3,18.0,-99.9,94,88,83,30.34,29.94,22,3,27,0.00
2012-12-30,37.7,26.2,11.8,30.4,21.3,9.4,100,82,71,30.41,30.16,13,6,15,0.00
2012-12-31,36.1,27.9,19.1,30.7,24.2,15.3,96,86,71,30.20,30.10,15,8,20,0.00
2013-1-1,19.0,12.7,3.9,14.9,8.6,0.9,89,84,78,30.34,30.19,9,4,10,0.00